Vertical_Velocity
-2 -2 -2 -1 -2 -2 -3 -2 -2 -2 -1 -3 -3 -7 -5 -3 -3 -2 -2 -3 1 2 1 0 2 -9 8 16 10 32 3 -5 -1 -8 -6 13 1 8 13 -4 -2 -5 -4 6 -1
-2 -2 -2 -1 -1 -2 -4 -4 -4 -2 -2 -2 -3 2 -1 -3 -3 -3 1 4 -3 0 -2 0 2 -5 0 14 5 31 -8 -6 5 2 -26 9 5 5 7 3 3 1 2 -1 -2
-2 -2 -1 -1 -3 -3 -3 -4 -2 -3 -1 -3 -3 -2 0 -1 -4 -2 -1 0 -2 -0 -0 -5 -1 -3 1 30 3 17 -13 2 -4 3 8 13 10 1 -5 7 -12 -14 -6 -3 0
-2 -2 -2 -3 -3 -5 -4 -4 -2 -2 -2 -4 -4 -4 -2 -1 -3 -2 -1 -2 -0 1 -4 2 -3 -5 -8 21 12 -6 14 36 -12 9 0 5 14 4 -5 -10 -6 0 2 -3 -2
-2 -2 -1 -3 -4 -4 -4 -3 -3 -4 -4 -5 -1 -2 -2 0 -0 -1 -3 1 -2 2 1 2 -4 4 -2 10 18 -6 6 -14 -7 5 9 2 6 -14 2 -5 3 4 6 3 2
-2 -3 -2 -3 -3 -4 -4 -3 -3 -4 -6 -4 -0 -4 -1 -0 2 -1 -2 0 -0 2 -1 -0 -9 8 -3 0 -8 -1 -4 -3 15 14 6 0 -11 38 17 -3 13 -1 3 4 4
-1 -1 -1 -3 -3 -2 -4 -3 -4 -5 -6 -4 -6 -1 2 -7 -3 -4 0 -0 -2 0 1 2 2 -1 -0 -3 -4 -6 1 9 1 10 10 12 14 12 -7 7 -3 -2 3 3 -1
-1 -2 -2 -3 -2 -1 -4 -5 -4 -4 -4 -6 1 -1 2 -0 -1 5 -1 1 -2 -9 0 4 2 5 1 -4 3 70 10 6 -6 -5 14 6 -2 12 -0 -8 2 2 2 -0 -7
-1 -1 -1 -2 -3 -1 -3 -7 -7 -5 -3 -3 1 -4 -3 4 1 -3 -1 2 -3 16 -0 6 6 -4 1 3 1 16 -3 1 1 -0 -8 9 18 -20 12 14 1 -2 -0 1 -5
-1 1 2 -1 -3 -2 -3 -3 -6 -8 -3 1 -4 -1 6 8 0 -4 -1 1 24 18 -1 4 4 -4 -11 15 -1 6 4 17 -14 -1 -20 9 16 7 3 2 8 -1 -5 1 0
-3 -2 0 0 1 -1 -4 -7 -4 -6 3 1 1 9 6 1 5 2 -2 -3 3 -1 -2 -3 2 4 -8 0 12 -15 -1 -7 7 -1 -9 9 17 -4 0 9 8 5 -0 1 0
-2 2 1 -0 -1 -0 1 -3 -4 -2 -4 1 -3 -11 2 -1 -1 -1 -6 -1 0 -2 -1 2 5 4 16 -3 8 11 -1 7 11 1 -13 9 13 4 -3 3 -2 -10 -5 -2 -1
-0 -2 1 3 2 -1 -1 2 -3 -4 -0 -4 -0 4 -8 -0 -3 10 7 -4 -4 -3 1 4 4 -10 -5 -1 -2 -9 -8 1 -1 1 -11 3 -7 4 12 2 4 11 10 4 6
-3 1 -2 1 5 -0 2 -3 1 -3 -1 3 -3 -2 -5 -5 3 7 21 -5 -5 2 -2 3 -5 -8 -23 4 10 -7 5 2 -6 -3 -6 14 -3 2 13 3 10 2 -4 -0 -3
0 -3 1 -1 0 3 1 3 -3 -1 -8 2 -10 -2 -4 -9 7 3 22 10 -13 -2 3 -4 -3 6 4 2 1 6 2 -5 -9 -2 -3 -1 9 -0 10 14 -4 -5 1 1 0
3 1 -1 3 -1 -3 2 2 2 -2 -8 -2 -4 -2 -0 -4 -3 2 5 7 10 0 -1 -2 2 -3 -6 4 -8 2 1 0 -4 2 3 1 -0 -0 -29 -19 -2 -1 -1 -0 -1
-1 1 -1 0 3 1 0 1 3 -1 1 -2 -3 -4 -4 -1 -2 -3 -0 5 -3 3 3 7 1 -1 0 2 -3 4 -16 3 3 2 -4 7 7 4 -10 -13 -6 -9 -9 -7 -2
3 -0 -2 -1 -1 4 0 1 1 2 1 -1 -3 -3 -6 -4 2 -3 -3 2 0 -2 -0 -4 1 -5 -7 1 2 4 6 -7 -4 -3 -4 0 -7 -26 -0 3 1 0 4 -1 -5
-1 -1 3 -2 -2 2 2 -1 -0 0 4 -1 -2 -2 -1 -5 -6 -2 -1 -7 -5 -1 -1 -7 -0 7 3 1 3 -8 -3 2 -6 4 -1 -5 2 -3 -8 -4 -4 -7 -3 1 -1
-1 6 4 -1 3 2 2 1 1 2 1 5 -1 -0 -3 -0 -1 -3 -3 -2 1 -3 -1 -1 -4 -2 3 7 2 -5 5 3 3 -3 0 -1 -1 -20 -20 -14 -6 -6 -7 -4 1
-4 1 2 3 2 2 1 0 -2 1 4 -1 5 1 3 -2 2 1 -1 -4 1 -1 -0 3 1 -2 4 -2 -12 3 6 3 2 1 -5 -2 -26 15 5 -6 -7 -7 -5 -6 -1
-1 -1 1 -1 1 1 3 2 3 0 1 1 -3 4 2 4 0 2 3 1 -6 -1 1 -1 3 2 -13 -5 -5 3 -7 4 1 -3 1 3 -7 4 -3 -1 5 -2 0 2 1
-0 -3 -0 5 2 3 -1 1 4 3 -5 -2 -1 -0 4 1 -1 -1 2 -1 0 0 -5 -4 -0 1 5 4 2 1 1 5 2 1 -2 -1 -3 3 9 8 -3 -2 4 -0 4
1 4 -3 -1 3 4 -2 -1 6 -0 4 -2 1 2 2 2 4 0 -2 3 1 2 2 2 -0 -2 -10 1 -3 -0 -5 3 4 1 -4 -7 -11 -2 2 1 9 4 3 2 2
-1 -3 -3 1 -0 2 7 3 -2 3 4 6 -7 0 3 -2 2 2 5 1 2 2 2 5 -1 -2 2 -1 -1 -1 -3 -6 -8 7 -7 -0 -7 -16 4 -0 -4 2 2 6 6
4 3 -3 -6 2 2 3 -3 -6 -1 4 3 -2 -3 -2 1 5 0 3 3 4 1 0 2 -0 2 -3 1 -2 -4 1 3 0 6 3 9 -28 3 3 -1 7 -9 -6 3 1
-2 5 3 -0 -3 0 -5 -5 -11 3 -3 -3 -3 -2 -3 -2 -1 2 4 2 1 2 4 1 3 3 -3 -0 2 9 -20 -2 -1 -1 4 -16 -5 -11 -11 -7 -7 3 3 -10 -9
Height
3079 3073 3068 3064 3060 3055 3050 3044 3040 3036 3033 3031 3029 3027 3024 3022 3020 3020 3019 3020 3019 3019 3020 3023 3025 3026 3033 3036 3043 3046 3054 3054 3060 3065 3075 3090 3097 3104 3109 3112 3116 3119 3125 3127 3130
3077 3071 3066 3062 3057 3052 3047 3042 3038 3034 3032 3029 3026 3024 3021 3019 3018 3017 3017 3015 3016 3016 3017 3019 3022 3023 3028 3030 3038 3038 3045 3051 3061 3067 3078 3086 3094 3099 3102 3106 3112 3117 3121 3125 3129
3075 3069 3065 3060 3055 3050 3045 3041 3036 3032 3029 3027 3025 3023 3020 3017 3015 3014 3014 3013 3012 3012 3014 3015 3018 3020 3023 3028 3032 3038 3039 3050 3061 3069 3082 3087 3093 3096 3099 3103 3109 3113 3118 3122 3126
3073 3068 3063 3059 3053 3048 3043 3039 3034 3030 3027 3025 3023 3022 3019 3016 3016 3013 3011 3010 3009 3008 3009 3011 3014 3015 3018 3022 3027 3033 3037 3044 3060 3067 3075 3081 3088 3091 3096 3102 3108 3113 3118 3120 3124
3072 3067 3062 3057 3051 3047 3042 3037 3032 3028 3025 3023 3022 3020 3017 3014 3013 3011 3008 3006 3004 3004 3006 3007 3010 3014 3015 3021 3024 3033 3037 3045 3058 3063 3070 3076 3082 3088 3094 3100 3106 3111 3115 3119 3122
3071 3066 3061 3056 3051 3046 3042 3036 3030 3026 3023 3021 3020 3018 3015 3013 3010 3008 3005 3002 3000 3000 3001 3003 3007 3012 3015 3017 3025 3028 3037 3044 3053 3060 3064 3073 3080 3085 3091 3096 3102 3109 3114 3117 3121
3070 3065 3060 3055 3050 3046 3041 3036 3030 3025 3021 3019 3018 3015 3012 3011 3007 3005 3001 2999 2997 2996 2998 3001 3005 3012 3014 3022 3019 3024 3034 3045 3048 3055 3061 3070 3078 3081 3087 3094 3100 3106 3110 3114 3118
3071 3065 3059 3054 3050 3045 3041 3036 3031 3026 3022 3018 3016 3013 3010 3007 3005 3002 2999 2997 2994 2994 2996 2999 3003 3009 3014 3018 3016 3016 3032 3039 3047 3052 3060 3065 3071 3081 3085 3090 3096 3102 3106 3110 3116
3071 3065 3059 3054 3050 3045 3041 3037 3032 3028 3025 3021 3018 3013 3009 3006 3004 3000 2998 2996 2994 2988 2993 3000 3004 3009 3014 3014 3015 3014 3024 3036 3046 3052 3057 3064 3070 3077 3083 3089 3093 3098 3103 3108 3112
3070 3065 3060 3054 3049 3046 3042 3037 3033 3028 3025 3021 3017 3014 3009 3007 3003 3000 2997 2996 2994 2993 2997 3001 3004 3009 3014 3011 3013 3016 3026 3038 3043 3051 3055 3062 3069 3073 3079 3086 3090 3095 3101 3105 3109
3070 3064 3060 3055 3049 3046 3042 3039 3038 3032 3026 3022 3018 3015 3010 3006 3003 3001 2998 2997 2996 2998 2999 3001 3004 3010 3011 3014 3017 3023 3027 3040 3046 3053 3054 3060 3067 3070 3076 3083 3088 3093 3098 3103 3108
3070 3065 3059 3055 3050 3046 3043 3040 3036 3034 3026 3022 3019 3015 3011 3007 3003 3001 3000 3000 2999 2999 3001 3005 3009 3012 3016 3019 3024 3025 3033 3042 3048 3052 3056 3062 3067 3070 3076 3081 3087 3092 3097 3101 3105
3070 3065 3059 3054 3050 3046 3043 3040 3036 3032 3029 3026 3022 3019 3015 3011 3006 3001 3000 3000 3002 3003 3004 3006 3013 3020 3019 3022 3023 3030 3036 3042 3047 3053 3058 3064 3065 3069 3075 3080 3085 3090 3096 3099 3103
3069 3065 3059 3054 3052 3046 3042 3039 3036 3032 3029 3031 3026 3022 3018 3012 3010 3004 3001 3003 3004 3007 3009 3012 3018 3023 3025 3029 3031 3033 3037 3045 3048 3055 3059 3065 3067 3067 3072 3077 3081 3086 3091 3097 3101
3067 3064 3059 3053 3051 3046 3044 3038 3035 3033 3034 3033 3029 3025 3020 3018 3015 3010 3007 3009 3008 3010 3014 3018 3022 3024 3028 3030 3034 3039 3042 3047 3053 3057 3061 3061 3064 3065 3071 3075 3078 3082 3088 3093 3098
3065 3061 3058 3055 3049 3047 3043 3039 3035 3036 3034 3034 3032 3028 3024 3021 3019 3017 3015 3016 3015 3016 3020 3022 3022 3025 3027 3032 3037 3041 3042 3045 3052 3058 3061 3057 3062 3062 3064 3069 3075 3081 3085 3089 3094
3064 3059 3056 3053 3048 3044 3042 3040 3037 3031 3033 3034 3033 3030 3028 3024 3023 3023 3021 3022 3021 3022 3023 3024 3028 3028 3028 3031 3037 3040 3044 3047 3054 3058 3057 3057 3061 3057 3061 3066 3071 3075 3080 3085 3091
3063 3058 3054 3051 3047 3043 3041 3041 3037 3030 3028 3030 3031 3032 3031 3028 3027 3026 3025 3025 3025 3024 3025 3025 3031 3030 3029 3030 3032 3038 3039 3039 3048 3055 3055 3055 3052 3053 3058 3064 3069 3074 3079 3083 3086
3060 3055 3051 3049 3046 3042 3041 3037 3034 3031 3031 3030 3030 3031 3032 3030 3030 3028 3029 3028 3027 3026 3028 3028 3028 3028 3029 3032 3032 3030 3033 3039 3041 3046 3050 3050 3047 3049 3054 3057 3062 3067 3072 3075 3079
3055 3052 3048 3046 3043 3039 3038 3036 3033 3031 3029 3029 3028 3028 3029 3030 3030 3029 3029 3029 3028 3028 3027 3029 3030 3029 3030 3031 3034 3034 3040 3042 3039 3047 3048 3044 3041 3037 3041 3048 3052 3057 3061 3067 3074
3051 3048 3046 3042 3040 3037 3034 3033 3030 3029 3029 3029 3026 3026 3027 3026 3027 3027 3027 3027 3027 3027 3027 3027 3029 3032 3032 3030 3031 3034 3034 3036 3038 3038 3040 3044 3029 3029 3038 3044 3049 3054 3058 3063 3067
3046 3045 3042 3039 3038 3034 3031 3031 3029 3027 3027 3027 3025 3023 3023 3024 3023 3024 3024 3024 3025 3025 3026 3026 3025 3026 3029 3032 3033 3033 3035 3036 3035 3036 3035 3033 3030 3029 3034 3041 3046 3050 3055 3059 3064
3041 3039 3038 3036 3034 3031 3030 3029 3026 3026 3025 3024 3022 3020 3019 3020 3022 3019 3020 3020 3021 3023 3024 3024 3024 3024 3027 3031 3028 3027 3030 3032 3033 3034 3032 3034 3029 3028 3030 3033 3040 3045 3049 3053 3056
3038 3035 3033 3033 3031 3029 3028 3026 3024 3024 3021 3020 3020 3018 3017 3016 3016 3015 3016 3017 3017 3017 3020 3021 3020 3019 3019 3018 3021 3023 3025 3027 3029 3030 3028 3024 3027 3028 3030 3030 3033 3036 3041 3046 3050
3032 3031 3029 3029 3028 3025 3023 3023 3021 3021 3019 3016 3015 3016 3014 3013 3011 3011 3011 3012 3014 3015 3015 3016 3014 3014 3014 3016 3017 3018 3021 3023 3024 3023 3025 3020 3022 3027 3029 3029 3030 3032 3036 3039 3043
3026 3025 3023 3022 3023 3021 3019 3018 3017 3017 3016 3013 3012 3011 3012 3010 3009 3008 3007 3007 3007 3009 3010 3010 3009 3009 3009 3011 3012 3012 3013 3015 3017 3017 3016 3018 3014 3023 3025 3026 3028 3029 3030 3033 3038
3019 3017 3016 3014 3014 3015 3014 3012 3012 3012 3009 3008 3007 3006 3005 3006 3005 3004 3003 3003 3004 3004 3004 3006 3006 3005 3004 3006 3006 3003 3003 3007 3009 3009 3011 3010 3005 3015 3020 3023 3025 3025 3025 3028 3031